Voltar ao catálogo

STARLINK-4023

AtivoComunicaçõesVLEO
NORAD 53135·PAYLOAD·🇺🇸 United States

Lançado Jul 17, 2022 de Cape Canaveral Space Force Station

Loading…

Próximas Passagens (próximas 24 horas)

TLE

AtualizadoSource: CelesTrak SupGP

Época: Sep 15, 2026, 02:13 UTC

1 53135C 22083D   26258.09284722 -.00010655  00000+0 -31487-3 0  2581
2 53135  53.1596  28.6490 0001164  84.9130   1.3245 15.34390042    11

Acompanhe STARLINK-4023 em tempo real com AllMySat

Download on the App Store